sat.trackr.live / text

‹ back to catalog

COSMOS 2438

NORAD 32955 · 2008-025C

PAYLOAD ACTIVE UNKNOWN

§ Identity

Operator
Country
CIS
Launch date
2008-05-23
Launch site
PLMSC
Launch vehicle
Mass (kg)
RCS (m²)
0.93

External: N2YO · Heavens-Above · Gunter

§ Orbital elements

Epoch: 2026-05-25T04:22:35.338944Z

Period
115.81 min
Inclination
82.5042°
Eccentricity
0.0021457
Mean motion
12.43368347 rev/d
Perigee alt
1,475.5 km
Apogee alt
1,509.2 km
Semi-major
7,870.5 km
B*
-2.7669e-4
RAAN
7.1468°
Arg perigee
357.4208°
Mean anomaly
2.6757°
Rev number
81,697

§ Raw data

COSMOS 24381 32955U 08025C   26145.18235346 -.00000029  00000+0 -27669-3 0  99942 32955  82.5042   7.1468 0021457 357.4208   2.6757 12.43368347816970

JSON: /api/v1/satellites/32955 · /tle

For live sub-satellite position, see the globe view (requires WebGL).

§ Visibility from observer

Set your observer location to see the next 7 days of passes ≥ 10°. The values pass through the URL so the page stays shareable.

No JS? Fill the form by hand. The geolocation button needs JavaScript.